SCP
0 0 0 0 0 0 1 1 1 1 1 1 1 1 1 1 1 1 1 1 1 2 2 2 2 2 2 2 3 3 3 2 2 1 1 1 1 1 1 1 1 1 1
1 0 0 0 0 0 0 1 1 1 1 1 0 1 1 1 1 1 1 1 1 1 2 2 2 2 2 2 2 3 3 3 2 1 1 1 1 1 1 1 1 1 1
1 1 0 0 0 0 0 0 0 0 0 0 0 0 1 1 1 1 1 1 1 1 1 2 2 2 2 2 2 3 3 3 2 2 1 1 1 1 1 1 1 1 1
1 1 1 0 0 0 0 0 0 0 0 0 0 1 1 1 1 1 1 1 1 1 1 1 2 2 1 2 3 3 3 3 2 2 1 1 1 1 1 1 1 1 1
1 1 1 1 0 0 0 0 0 0 0 0 0 1 1 1 1 1 1 1 1 1 1 1 2 2 1 2 3 3 3 3 2 2 1 1 1 1 1 1 1 1 1
1 1 1 1 1 0 0 0 0 0 0 0 0 1 1 1 1 1 1 1 1 1 1 1 1 1 1 1 2 2 3 3 3 2 2 1 1 1 1 1 1 1 0
1 1 1 1 1 1 0 0 0 0 0 0 1 1 1 1 1 1 1 1 1 1 1 1 1 1 1 1 1 2 2 3 2 2 2 1 1 1 1 1 1 1 0
1 1 1 1 1 1 1 1 0 0 0 0 1 1 1 1 1 1 1 1 1 1 1 1 1 1 1 1 1 1 2 2 2 1 1 1 1 1 1 1 0 0 0
0 1 1 1 1 1 1 1 1 0 0 0 0 1 1 1 1 1 1 1 1 1 1 1 1 1 1 1 1 1 1 1 1 1 1 1 1 1 1 0 0 0 0
0 0 1 1 1 1 1 1 1 1 1 1 1 1 1 1 1 1 1 1 1 1 1 1 1 2 2 2 1 1 1 1 1 1 1 0 1 1 0 0 0 0 0
1 0 0 1 1 1 2 2 2 1 1 1 1 1 1 1 1 1 1 1 1 2 2 2 2 2 2 2 2 2 2 1 1 1 1 1 1 1 1 1 1 0 0
1 1 0 1 1 1 2 2 2 2 1 1 1 1 1 1 1 1 1 1 2 2 2 2 2 3 2 2 2 2 2 2 1 1 1 1 1 1 1 1 1 0 0
1 1 0 1 1 1 2 2 2 1 1 1 1 1 1 1 1 1 1 1 2 2 2 2 2 2 1 1 1 2 2 1 1 1 1 1 1 1 1 1 1 1 0
1 1 1 1 1 1 1 1 1 1 1 1 1 1 1 1 1 1 1 1 1 1 1 1 1 1 1 1 1 1 1 1 1 1 1 1 1 1 1 1 1 1 1
1 1 2 2 1 1 1 1 1 1 1 1 1 1 1 1 1 1 1 1 1 1 1 1 1 1 1 1 1 1 1 1 1 1 1 1 1 1 1 1 1 1 1
2 2 2 2 1 1 1 1 1 1 1 1 1 1 1 1 1 1 1 1 1 1 1 2 2 1 1 1 1 1 1 1 1 1 1 1 1 1 1 1 1 1 1
3 2 2 1 1 1 1 1 1 1 1 1 1 1 1 1 1 1 1 1 1 1 1 1 1 1 1 1 1 1 1 1 1 1 1 1 1 1 1 1 1 1 1
3 3 2 1 1 1 1 1 1 1 1 1 1 1 1 1 1 1 1 1 1 1 1 1 1 1 1 1 1 1 1 1 1 1 1 1 1 2 2 2 2 2 2
3 3 2 1 1 1 1 2 2 2 1 1 1 1 1 1 1 1 1 1 0 0 0 1 1 1 1 0 0 1 2 2 2 2 1 1 1 2 2 2 2 2 2
3 2 2 1 1 1 1 2 2 2 2 1 1 1 1 1 1 1 1 1 0 0 1 1 1 1 1 0 0 1 1 2 2 2 1 1 1 1 1 2 2 2 2
3 3 2 2 1 1 1 2 2 2 1 1 1 1 1 1 1 1 1 1 1 1 1 1 1 1 1 1 1 1 1 2 2 2 2 1 1 1 1 1 2 2 2
3 3 3 2 2 1 1 1 1 1 1 1 1 2 1 1 1 1 1 1 1 1 1 1 1 1 1 1 1 1 1 1 1 2 1 1 1 1 1 1 2 2 2
4 4 4 3 3 2 1 1 1 1 1 1 2 2 2 1 1 1 1 1 1 1 1 1 1 1 1 1 1 1 1 1 1 1 1 1 1 1 1 1 1 2 2
4 5 5 5 4 3 2 1 1 1 1 1 2 2 2 2 2 2 1 1 1 1 1 1 1 2 2 2 1 1 1 1 1 1 1 1 2 2 2 2 2 2 2
4 4 6 7 6 4 2 1 1 1 1 1 2 2 2 2 2 2 2 2 2 2 2 2 2 2 2 2 2 2 1 1 1 1 1 2 2 2 2 2 2 2 2
3 4 6 8 7 5 3 2 1 1 1 1 1 2 2 2 3 3 3 3 3 2 3 2 2 2 3 3 2 2 2 1 1 1 2 2 2 2 2 2 2 2 3
Wind_Speed
9 11 11 10 10 10 10 10 10 11 12 12 12 12 13 13 13 14 14 15 15 16 16 17 17 18 18 17 17 17 17 17 18 18 18 17 16 15 14 13 13 11 15
12 12 12 11 10 10 10 10 11 11 12 12 12 12 12 13 13 14 15 15 15 16 16 17 17 17 18 17 16 16 16 16 16 17 17 15 15 13 12 11 12 10 14
13 12 10 10 10 10 10 10 10 11 11 12 12 12 12 13 13 14 15 15 16 16 16 17 16 17 17 16 15 15 15 15 14 15 14 10 10 12 12 13 14 14 13
13 11 10 10 10 10 9 9 10 10 11 12 12 12 12 13 13 15 15 16 16 16 16 16 16 16 16 15 15 14 13 13 12 11 6 7 8 12 12 13 13 13 12
12 12 10 11 11 10 10 10 10 10 11 12 12 12 12 13 13 15 16 16 16 16 16 16 16 15 14 14 13 12 11 10 9 6 5 7 7 12 12 12 12 12 12
12 12 11 11 10 10 10 10 10 10 11 11 12 12 12 12 13 14 15 15 15 15 15 15 15 14 14 13 12 10 8 6 5 5 6 7 8 11 12 11 11 10 10
12 13 12 11 10 10 10 10 10 10 11 11 12 11 12 12 13 14 14 14 14 14 14 14 13 13 13 11 9 7 6 4 3 4 5 7 8 11 12 11 10 10 9
12 13 12 11 11 10 9 10 10 10 11 11 11 11 11 12 12 13 13 13 13 13 13 12 12 12 11 9 7 5 4 2 5 6 6 7 10 12 12 10 10 9 9
11 11 11 10 9 10 10 9 10 10 10 11 11 11 11 11 12 13 12 12 12 12 12 11 11 10 9 8 6 4 3 1 2 4 8 6 10 11 11 10 9 9 9
9 9 9 10 9 8 8 10 11 10 10 10 10 10 10 10 11 12 12 11 11 11 11 10 10 9 8 7 5 4 3 2 3 5 5 7 11 11 11 10 10 9 8
7 6 7 8 7 8 9 10 10 10 9 9 7 8 7 5 6 7 11 12 11 10 10 9 9 8 7 6 6 5 4 2 3 5 5 10 12 12 11 10 9 9 8
6 7 6 6 5 5 7 7 6 6 6 5 4 5 3 3 5 8 11 12 11 10 9 8 8 7 5 4 5 5 3 3 4 5 6 13 12 12 11 10 9 8 8
5 6 7 7 5 4 4 4 3 4 4 5 5 4 3 4 5 5 5 6 6 7 5 6 6 4 4 3 3 3 2 2 3 5 8 13 11 11 10 9 9 8 8
5 6 7 7 5 4 3 3 3 3 3 3 5 4 3 2 2 3 3 4 4 3 3 3 2 2 2 2 2 2 2 2 4 5 7 12 11 10 10 9 8 8 8
6 6 7 7 5 4 3 1 3 3 3 5 4 3 3 3 2 3 2 2 3 3 3 2 2 2 2 1 1 2 2 3 4 5 5 11 11 9 9 9 8 8 8
6 6 6 6 6 4 3 2 2 3 3 4 3 4 3 3 3 3 2 1 2 3 3 3 3 2 1 1 1 1 1 2 4 5 6 7 10 9 9 9 8 8 7
6 6 5 6 6 4 3 2 3 2 3 3 3 4 3 3 3 3 2 2 2 2 3 2 3 2 2 2 1 1 1 1 2 4 5 5 5 8 8 8 8 8 8
7 6 3 5 7 5 3 1 2 2 3 3 3 4 4 3 3 2 2 2 1 1 2 2 2 2 1 2 1 1 2 1 2 3 3 4 4 5 7 9 8 8 8
7 5 4 4 6 5 4 2 2 2 2 2 3 3 3 4 3 2 2 2 2 1 1 2 3 2 1 2 2 2 2 2 2 2 3 3 4 5 5 7 8 8 8
8 6 5 4 5 4 3 2 2 2 2 2 3 2 3 3 3 2 2 2 2 2 1 1 2 1 1 1 1 1 1 2 2 2 3 3 3 4 5 6 5 5 7
8 7 5 5 4 3 2 2 2 2 2 2 3 3 3 3 3 1 1 2 1 1 1 1 2 2 1 2 1 1 0 1 1 2 2 2 3 3 3 4 3 3 3
9 7 6 5 5 3 3 2 2 2 2 3 2 3 4 3 3 3 2 2 2 2 2 1 1 1 1 1 1 2 1 0 1 2 2 2 2 2 3 3 3 3 2
10 9 7 6 5 4 3 3 2 2 1 2 3 3 3 4 4 2 3 2 1 2 2 2 2 2 1 1 1 1 2 2 1 1 2 2 2 2 2 2 3 3 4
10 9 8 7 5 4 4 3 4 4 3 3 3 3 4 4 4 3 3 2 1 1 2 2 2 2 2 2 2 1 1 1 2 1 0 1 2 2 1 2 2 3 4
11 10 9 7 5 5 4 4 3 3 3 3 3 4 4 3 3 3 3 2 2 1 1 1 1 1 2 2 2 1 1 1 2 2 2 2 1 1 1 2 2 2 3
11 10 10 8 6 5 5 4 3 2 1 2 3 4 3 3 3 4 4 3 2 2 2 2 2 2 2 2 1 1 1 1 2 2 2 3 2 1 1 1 2 2 3
Wind_Direction
90 87 84 76 72 71 72 73 75 74 75 77 78 82 87 93 97 100 102 106 108 110 112 113 115 116 116 116 115 114 113 113 114 115 114 114 114 116 117 117 118 109 109
100 94 86 79 76 75 76 76 76 78 78 80 82 85 90 95 97 98 102 105 106 107 111 112 113 117 118 118 119 118 117 118 120 121 119 117 118 118 117 113 108 113 113
100 98 90 83 81 79 79 81 82 82 82 83 83 86 90 93 97 102 102 104 105 106 109 113 115 120 121 122 123 123 122 124 125 129 129 121 117 114 110 108 111 115 115
99 97 92 90 87 82 82 87 86 85 86 87 86 87 90 91 99 105 105 105 104 105 105 110 116 121 124 125 125 124 127 131 135 139 133 124 121 117 114 112 115 116 117
101 101 99 98 94 86 84 90 89 87 88 91 91 89 91 94 98 104 106 106 105 105 105 107 116 121 125 126 125 128 133 136 140 138 115 111 111 123 119 117 118 119 120
109 106 103 102 99 94 91 94 92 92 94 97 95 92 93 94 97 105 106 107 107 107 107 107 109 113 120 124 127 130 134 137 147 126 122 119 120 128 127 125 121 122 124
108 107 109 109 106 103 100 100 98 97 98 99 98 97 97 95 97 103 107 108 109 108 108 109 109 112 117 123 130 138 149 163 158 125 114 112 121 132 131 131 129 128 127
104 109 117 118 115 111 108 108 106 104 103 102 100 102 103 102 104 109 109 112 112 109 110 111 110 114 121 131 144 161 176 207 139 127 116 115 131 136 134 132 132 134 133
107 115 127 129 125 120 118 120 118 114 110 110 107 106 108 108 110 115 115 115 115 114 114 117 120 124 133 140 150 164 175 207 140 134 123 123 137 138 139 139 140 141 140
107 112 125 130 133 132 126 129 128 124 122 120 118 118 121 121 119 123 122 119 121 121 123 124 128 135 143 153 162 173 194 232 173 133 116 131 143 145 146 146 147 148 148
100 108 112 119 128 135 133 132 137 133 132 133 131 133 135 135 130 127 122 128 128 130 133 134 137 144 154 168 183 197 218 211 133 114 116 136 146 146 147 148 148 149 149
105 110 109 112 117 126 125 137 144 135 137 145 137 146 144 132 125 121 127 134 137 141 146 152 156 162 174 182 191 204 220 180 128 122 124 140 145 147 149 152 153 154 152
111 104 105 102 104 103 113 138 127 126 136 142 133 134 131 121 129 131 140 144 148 155 162 160 176 187 183 178 174 187 193 140 115 114 134 144 146 151 155 158 160 160 159
103 100 100 101 91 81 85 108 122 125 126 122 129 136 121 117 125 134 139 146 153 157 158 168 183 171 154 158 164 168 150 121 111 112 140 147 150 156 160 161 164 167 167
113 102 97 97 96 91 80 74 106 106 118 119 119 124 124 130 126 125 123 135 149 154 158 165 160 140 141 162 162 136 112 102 115 118 136 154 154 160 164 166 171 176 179
119 111 111 111 108 106 107 88 102 119 114 116 121 128 133 124 121 121 134 149 165 156 152 152 145 140 159 136 97 92 98 109 120 128 140 155 162 166 171 175 180 184 188
120 115 124 126 117 121 123 142 128 125 128 122 124 129 134 126 131 142 149 172 157 139 137 141 133 145 166 153 147 140 112 94 116 129 143 149 160 172 176 179 183 186 187
125 123 132 127 126 126 118 113 106 113 114 124 131 135 142 133 145 158 153 153 155 159 148 140 147 149 164 151 145 148 138 127 136 147 153 155 158 162 180 185 185 185 187
128 129 126 105 122 133 139 133 122 110 117 123 117 124 138 146 154 162 145 136 164 160 151 170 137 147 152 145 152 159 157 144 153 161 158 166 161 155 161 173 180 183 189
135 135 134 130 123 137 142 137 135 135 131 128 122 126 134 143 144 159 143 157 179 153 144 121 123 139 152 173 180 118 140 160 153 156 166 166 153 157 158 159 172 182 189
143 143 147 147 139 147 146 157 163 160 153 145 146 148 149 151 148 156 138 147 177 136 138 155 151 167 182 175 143 103 96 172 157 144 138 136 138 133 130 139 160 164 171
151 152 155 156 154 166 154 162 173 157 156 147 144 149 161 155 157 164 158 172 175 151 157 172 162 161 212 183 147 141 141 40 25 121 129 143 136 132 131 140 140 141 146
157 161 167 163 162 172 165 174 160 147 163 144 150 153 166 166 164 171 162 176 177 171 164 177 188 186 200 227 202 174 168 180 151 80 132 124 118 108 118 128 133 140 134
162 164 158 159 161 167 179 187 179 175 180 160 158 156 164 168 168 171 158 163 183 175 154 195 171 195 192 224 225 220 208 150 151 147 75 114 126 125 123 114 112 114 117
164 162 158 157 163 170 183 188 199 185 176 155 151 154 164 166 170 165 154 160 169 181 176 201 140 211 215 225 228 208 193 172 185 162 175 170 138 127 136 134 135 125 120
166 164 162 160 166 173 186 187 191 199 188 150 157 161 180 169 171 171 161 163 174 185 184 193 201 203 221 234 240 234 211 197 198 177 169 165 160 151 148 143 150 139 126